www.pogodaiklimat.ru

Погода и климат >> Архив погоды >> Россия >> Псковская область >> Гдов


ПОГОДА в Гдове

  • Прогноз погоды в Гдове
  • Монитор погоды в Гдове

АРХИВ ПОГОДЫ в Гдове

Время (UTC), дата Ветер
(напр.,м/с)
 
Видим.   Явления Облачность Т
(С)
Тd
(С)
f
(%)
Тe
(С)
Тes
(С)
Комфортность P
(гПа)
Po
(гПа)
Тmin
(С)
Tmax
(С)
R
(мм)
R24
(мм)
S
(см)
15 15.09 ЮЗ 8-13
{15}
10 км слаб. ливневой дождь 9/9 300 м
[Cb cap]
+13.1 +11.9 92 +10 +10 993.2 988.4 18
18 15.09 З 5
{13}
20 км {ливн. осадки} 9/9 600 м
[Cb calv]
+12.7 +10.1 84 +10 +10 993.9 989.1 +13.4 16
21 15.09 ЮЗ 4
{12}
20 км в посл. час ливневой дождь 9/9 600 м
[Cb calv]
+11.4 +9.2 86 +9 +9 993.6 988.8
00 16.09 З 6-11
{12}
20 км {ливн. осадки} 9/8 600 м
[Cb calv Ac trans]
+11.3 +8.3 82 +8 +8 992.8 988.0
03 16.09 З 5
{14}
20 км в посл. час ливневой дождь 9/9 600 м
[Cb calv]
+10.4 +8.8 90 +7 +7 992.4 987.6 +9.9 3
06 16.09 ЮЗ 6-10
{13}
20 км {ливн. осадки} 9/6 600 м
[Cb calv Ac trans]
+11.4 +9.4 88 +8 +8 991.2 986.4 +9.9 2
09 16.09 З 6-12
{14}
10 км слаб. ливневой дождь 9/9 600 м
[Cb cap]
+12.1 +9.1 82 +9 +10 991.6 986.8
12 16.09 З 6-12
{12}
20 км {ливн. осадки} 6/4 600 м
[Cb calv Ac trans Ci fib]
+13.9 +8.5 70 +12 +13 992.8 988.0
15 16.09 СЗ 4-10
{12}
10 км слаб. ливневой дождь 9/9 600 м
[Cb cap]
+10.5 +8.5 87 +8 +8 994.4 989.6 2
18 16.09 З 4 20 км {ливн. осадки} 9/9 600 м
[Cb calv]
+11.2 +9.1 87 +9 +9 994.8 990.0 +14.6 7
21 16.09 З 3 20 км {ливн. осадки} 9/9 600 м
[Cb calv]
+10.5 +9.1 91 +8 +8 995.2 990.4
00 17.09 СЗ 2 20 км {ливн. осадки} 9/8 1000 м
[Sc Ac trans Ci fib]
+9.7 +8.1 90 +8 +8 995.4 990.6
03 17.09 СЗ 3 20 км 9/9 600 м
[Cb calv]
+9.1 +7.0 87 +7 +7 996.2 991.3 +9.0 7
06 17.09 З 3 20 км в посл. час ливневой дождь 9/9 600 м
[Cb calv]
+9.5 +7.4 87 +7 +7 996.6 991.7 +8.1 4
09 17.09 З 3 20 км 9/8 600 м
[Cu med, cong Ci fib]
+10.8 +5.9 72 +9 +10 997.3 992.5
12 17.09 З 3 20 км 10/3 600 м
[Cu med, cong Ci fib]
+12.4 +4.6 59 +11 +13 997.4 992.6
15 17.09 С 3 20 км 9/3 600 м
[Cu Sc Ac trans Ci fib]
+11.2 +4.9 65 +10 +10 997.3 992.5 2
18 17.09 СВ 1 20 км 4/0
[Ac trans]
+5.4 +5.0 97 +4 +4 997.6 992.7 +12.8
21 17.09 В 1 20 км туман поземный 1/0
[Ac trans]
+2.4 +2.4 100 0 0 997.4 992.4
00 18.09 СВ 1 20 км 3/3 1000 м
[Sc Ci fib]
+0.7 +0.7 100 -2 -2 997.5 992.5
03 18.09 СВ 1 20 км 3/3 1000 м
[Sc]
+2.1 +2.1 100 0 0 998.1 993.1 +0.6
06 18.09 СВ 1 20 км 9/8 1000 м
[Sc Ac trans]
+6.6 +6.6 100 +5 +6 999.6 994.7 +0.6
09 18.09 СВ 2 20 км 8/5 1000 м
[Cu Sc Ac trans]
+11.3 +6.3 71 +10 +12 1001.3 996.4
12 18.09 СЗ 4 20 км 8/4 600 м
[Cb calv Ac trans Ci fib]
+12.1 +5.9 66 +10 +12 1002.9 998.1
15 18.09 С 2 20 км 10/5 600 м
[Cb calv Ac trans Ci fib]
+10.1 +6.9 81 +9 +9 1005.1 1000.2
18 18.09 С 3 20 км 9/3 1000 м
[Sc Ac trans]
+8.0 +6.5 90 +5 +5 1007.2 1002.3 +12.4
21 18.09 С 2 20 км в посл. час ливневой дождь 10/10 600 м
[Cb calv]
+6.9 +6.2 95 +5 +5 1008.7 1003.7
00 19.09 СВ 1 20 км 9/8 600 м
[Cb calv Ac trans]
+6.1 +5.5 96 +5 +5 1009.9 1004.9
03 19.09 С 1 20 км 9/0
[Ac trans]
+5.4 +5.0 97 +4 +4 1011.0 1006.0 +5.3 0.3
06 19.09 С 1 20 км 8/6 1000 м
[Sc Ac trans Ci fib]
+6.4 +4.3 86 +5 +6 1012.6 1007.6 +3.2 0.3
09 19.09 С 2 20 км 8/8 600 м
[Cu Sc Ac trans Ci fib]
+8.8 +2.1 63 +7 +8 1014.1 1009.1
12 19.09 СЗ 3 20 км 9/8 600 м
[Cu Sc Ac trans]
+10.3 +2.2 57 +9 +9 1014.5 1009.6
15 19.09 СЗ 2 20 км 6/4 600 м
[Cu Sc Ac trans Ci fib]
+9.3 +2.8 64 +8 +8 1014.8 1009.8
18 19.09 В 1 10 км 6/1 1000 м
[Sc Ci fib]
+1.8 +1.7 99 -0 -0 1015.1 1010.0 +10.5
21 19.09 Ю 4 20 км 10/3 1000 м
[Sc Ac trans Ci fib]
+5.5 +3.6 88 +1 +1 1014.4 1009.4
00 20.09 СВ 1 10 км слаб. ливневой дождь 10/10 600 м
[Cb cap]
+5.7 +4.9 95 +4 +4 1015.1 1010.1
03 20.09 С 3 20 км {ливн. осадки} 8/4 600 м
[Cb calv Ac trans]
+6.0 +3.7 85 +3 +3 1015.2 1010.2 +1.4 0.7
06 20.09 С 3 20 км {ливн. осадки} 3/3 600 м
[Cu med, cong]
+6.5 +3.4 81 +3 +4 1016.5 1011.5 +1.4 0.7
09 20.09 СЗ 4 20 км 3/3 600 м
[Cu med, cong]
+9.3 +2.3 62 +7 +9 1017.6 1012.6
12 20.09 З 3 20 км 6/6 600 м
[Cb calv]
+10.6 +1.8 54 +9 +10 1017.6 1012.7
15 20.09 З 2 20 км 3/3 600 м
[Cb calv]
+9.1 +0.2 54 +8 +8 1016.8 1011.8
18 20.09 З 3 20 км 8/8 600 м
[Cu Sc]
+8.8 +4.1 72 +6 +6 1016.3 1011.3 +10.9
21 20.09 З 3 20 км 8/8 1000 м
[Sc]
+8.3 +5.4 82 +6 +6 1015.6 1010.6
00 21.09 З 2 20 км 8/5 1000 м
[Sc Ac trans Ci fib]
+8.3 +6.0 85 +6 +6 1014.0 1009.0
03 21.09 ЮЗ 3 10 км слаб. ливневой дождь 8/5 600 м
[Cb calv Ac trans Ci fib]
+7.6 +6.5 93 +5 +5 1012.2 1007.2 +7.5 0.6
06 21.09 ЮВ 4 10 км слаб. ливневой дождь 10/10 600 м
[Cb cap]
+6.6 +6.3 98 +3 +3 1009.5 1004.5 +6.5 1
09 21.09 ЮВ 2 20 км {ливн. осадки} 10/10 200 м
[St]
+8.2 +8.2 100 +6 +6 1007.8 1002.9
12 21.09 СЗ 2 20 км {ливн. осадки} 9/9 600 м
[Sc]
+10.4 +8.9 90 +9 +9 1007.0 1002.1
15 21.09 СЗ 4 20 км 9/8 600 м
[Sc Ac trans]
+10.4 +7.5 82 +8 +8 1006.6 1001.7 1
18 21.09 С 4 20 км 9/9 600 м
[Cb calv]
+9.4 +7.7 89 +6 +6 1007.6 1002.7 +10.9 0.5
21 21.09 СЗ 3 20 км {ливн. осадки} 4/4 600 м
[Cb calv]
+8.9 +6.9 87 +6 +6 1007.6 1002.7
00 22.09 СЗ 4 20 км {ливн. осадки} 8/4 1000 м
[Sc Ac trans]
+8.9 +6.3 84 +6 +6 1008.1 1003.2
03 22.09 С 4 20 км 9/5 600 м
[Sc Ac trans]
+7.7 +5.0 83 +4 +4 1009.4 1004.4 +7.6 0.5
06 22.09 С 2 20 км 4/4 600 м
[Cb calv]
+5.5 +3.3 86 +3 +4 1011.8 1006.8 +5.2 0.5
09 22.09 С 5
{10}
20 км 8/4 600 м
[Cb calv Ci fib]
+7.6 +2.2 69 +4 +5 1013.3 1008.3
12 22.09 С 6-10
{10}
20 км 4/4 1000 м
[Cu med, cong]
+9.4 +0.5 54 +6 +7 1014.6 1009.6

 

Местоположение метеостанции Гдов (Псковская область, Россия): широта 58.73 долгота 27.83 высота над уровнем моря 41 м.

В архиве по умолчанию представлена погода в Гдове за последнюю неделю. Архивные данные за месяц целиком и за предыдущие месяцы, начиная с января 2011 года, Вы можете получить, выбрав интересующий диапазон дат из раскрывающегося списка и нажав кнопку "Ввод!".


*Определитесь, кто Вы:
робот инопланетянин человек

Внимание! Время в таблицах - всемирное. Для получения местного времени необходимо прибавить поправку, которая равна 3 ч.

Смотрите также архив погоды в соседних городах и на ближайших метеорологических станциях:

Погода в Сланцах (Ленинградская область, Россия) (46 км)
Погода в Тиирикое (Эстония) (53 км)
Погода в Йохви (Эстония) (72 км)
Погода в Нарве (Эстония) (73 км)
Погода в Тарту (Эстония) (80 км)
Погода в Йыгеве (Эстония) (81 км)
Погода в Кингисеппе (Ленинградская область, Россия) (84 км)
Погода в Стругах-Красных (Псковская область, Россия) (90 км)
Погода в Вяйке-Маарье (Эстония) (102 км)
Погода в Пскове (Псковская область, Россия) (105 км)

Пояснения к столбцам:

Ветер - указаны скорость ветра в м/с - средняя за 10 мин, порывы в срок и между сроками (в фигурных скобках) и направление, откуда дует ветер: С - северный, СВ - северо-восточный, В - восточный, ЮВ - юго-восточный, Ю - южный, ЮЗ - юго-западный, З - западный, СЗ - северо-западный.
Видимость - горизонтальная дальность видимости в метрах или километрах. При видимости от 1 до 10 км при отсутствии осадков обычно наблюдается дымка, при ухудшении видимости до 1 км и менее - туман. В сухую погоду видимость может ухудшаться дымом, пылью или мглою.
Явления - указаны атмосферные явления, наблюдавшиеся в срок или в последний час перед сроком; фигурными скобками обозначены явления, наблюдавшиеся между сроками (за 1-3 часа до срока); квадратными скобками обозначены град или гололедные отложения с указанием их диаметра в мм.
Облачность - указаны через наклонную черту общая и нижняя облачность в баллах и высота нижней границы облаков в метрах; квадратными скобками обозначены формы облаков: Ci - перистые, Cs - перисто-слоистые, Cc - перисто-кучевые, Ac - высококучевые, As - высокослоистые, Sc - слоисто-кучевые, Ns - слоисто-дождевые, Cu - кучевые, Cb - кучево-дождевые. Подробнее классификацию облаков см. в Атласе облаков (PDF).
T - Температура воздуха - температура, измеренная на высоте 2 м над землей.
Td - Температура точки росы - температура, при понижении до которой содержащийся в воздухе водяной пар достигнет насыщения.
f - Относительная влажность воздуха - влажноcть воздуха, измеренная на высоте 2 м над землей.
Te - Эффективная температура - температура, которую ощущает одетый по сезону человек в тени. Характеристика душности погоды. При расчете учитывается влияние влажности воздуха и скорости ветра на теплоощущения человека.
Tes - Эффективная температура на солнце - температура, которую ощущает человек, с поправкой на солнечный нагрев. Характеристика знойности погоды. Зависит от высоты солнца над горизонтом, облачности и скорости ветра. Ночью, в пасмурную погоду, а также при ветре 12 м/с и более поправка равна нулю.
P - Атмосферное давление - приведенное к уровню моря атмосферное давление.
Po - Атмосферное давление - измеренное на уровне метеостанции атмосферное давление.
Tmin - Минимальная температура - минимум температуры воздуха на высоте 2 м над землей.
Tmax - Максимальная температура - максимум температуры воздуха на высоте 2 м над землей.
R - Количество осадков - Количество выпавших осадков за период времени, мм. При наведении курсора мыши на число - период времени, за который выпало указанное количество осадков.
R24 - Количество осадков - Количество выпавших осадков за 24 часа, мм.
S - Снежный покров - Высота снежного покрова, см. При наведении курсора мыши на число - состояние снежного покрова и степень покрытия местности в баллах.